CZ-2C R/B, 43610

Orbit data source: Space-Track

CZ-2C R/B, 43610 is space debris in SSO originally from a launch on Fri, 07 Sep 2018 UTC launched from the Taiyaun Space Center, China (TSC). Debris objects in space refer to the collection of defunct objects orbiting the Earth. Examples of debris include non-operational satellites, rocket bodies, and fragments generated from explosions, collisions, or faulty payload assembly.

Loading next visibility...
Identifier
43610, 2018-068B
Orbit
SSO
Country
Flag of CNCN / PRC
Related business
Manufacturer
CALT
Mission
Spacecraft
Bus & Motor
CZ-2 STAGE 2, Unknown motor
Mass
~3,800 kg wet, ~3,800 kg dry
Launch date (UTC)
2018-09-07 (8 years ago)
Launch vehicle
Unknown
Launch site
Taiyaun Space Center, China (TSC)
Object type
Payload
Rocket body
Debris
Shape & HBR
Cyl, 3.7 m
Radar Cross Section
23.715 m², Large (>1 m²)

Expand to show TLE details & history
Last TLE update: 13 hours ago

TLE from 13 hours ago
0 CZ-2C R/B
1 43610U 18068B   26073.51785627  .00000444  00000-0  10706-3 0  9995
2 43610  98.7263 274.4963 0085547 279.1685  79.9841 14.56545642399116
Epoch: 2026-03-14T12:25Z
TLE epoch observation values (Epoch: 2026-03-14T12:25:42.781Z)
Latitude
-0.00009°
Longitude
-84.06983°
Altitude
697.278 km
Speed
7.513 km/s
True Right ascension
18h 17m 59s
True Declination
0° 00' 00"
Sunlit
Object was in daylight at epoch
Visualization orbit readout
Latitude
Unknown
Longitude
Unknown
Altitude
Unknown
Speed
Unknown
Apparent Right ascension
Unknown
Apparent Declination
Unknown
Sunlit
N/A
Visualization observer readout
Local Sidereal Time
06:15:45
Azimuth
Unknown
Elevation
Unknown
Doppler factor
Unknown
Orbital elements
Apogee altitude
762.024 km
Perigee altitude
640.896 km
Semi-major axis
7,079.597 km
Eccentricity
0.00855
Inclination
98.7263°
RAAN
274.4963°
Arg. of periapsis
279.1685°
True anomaly
80.95121°
Mean anomaly
79.9841°
Eccentric anomaly
80.46748°
Mean motion
3.6436 °/min
Orbital period
98.8 mins
BSTAR
0.00010706
Loading maneuver chart data...
Computing Atmospheric mass density...
Loading historical data...
Loading historical data...
Loading historical data...
Loading historical data...
Loading historical data...
Loading historical data...
Loading historical data...
Other satellites on launch #68 in the year 2018 (2018-09-07 UTC)

Documentation

Showing up to 5 results
|